STARLINK-4537 (53407 NORAD) Tracking and Keplerian Element Data

This shows tracking and keplerian element data for the satellite.

Feedback or suggestion? Click here.




ElementValue
Catalog53407
NameSTARLINK-4537
Epoch Orbit799
Epoch Day270.25001157
Epoch Year2022
RAAN10.238
Inclination53.2175
Eccentricity0.0002466
Argument of Perigee18.036
Mean Anonmoly148.2111
Mean Motion15.73264515
Decay Rate-0.0007271
L11 53407U 22097V 22270.25001157 -.00072710 00000+0 -51659-3 0 9990
L22 53407 53.2175 10.2380 0002466 18.0360 148.2111 15.73264515 7996

Live tracking and technical data element details for STARLINK-4537 (NORAD 53407). STARLINK-4537 can be tracked NOW for your location showing map with azimuth and elevation plus other details from your city location.

Track the satellite on the map from your city or location and see movement details for azimuth, elevation, latitude, longitude, range, height, and movement on the map or in text.







IsCatalogInMostPopularTable: catalog: 53407, numindb: 3
Update: records affected: 1



GetName: 53407 STARLINK-4537

Hit Count: updated at: Fri, 30 Sep 2022 04:19:07 GMT